Tracking 19796 objects as of 19-Jul-2019
HD Live streaming from Space Station
objects crossing your sky now

FENGYUN 1C DEB

Track FENGYUN 1C DEB now!
10-day predictions


NORAD ID: 31074
Int'l Code: 1999-025BFU
Perigee: 832.5 km
Apogee: 981.2 km
Inclination: 99.0 °
Period: 103.0 minutes
Semi major axis: 7277 km
RCS: 0.0165 m2 (small)
Launch date: May 10, 1999
Source: People's Republic of China (PRC)
Launch site: Taiyaun Space Center, China (TSC)

Note: This is SATELLITE DEBRIS
aabbcc
Your satellite tracking list
Your tracking list is empty




NASA's NSSDC Master Catalog

Two Line Element Set (TLE):
1 31074U 99025BFU 19199.69802978 +.00000761 +00000-0 +53990-3 0  9991
2 31074 099.0077 113.0785 0102169 285.0791 073.9087 13.98287742627825
Source of the keplerian elements: AFSPC